| time (UTC) | temp F | wind direction | speed MPH | gust MPH | rain 1hr in | rain 24hr in | rain mn in | humidity % | barometer mb |
| 20260509150740 | 42 | 280 | 3.0 | 8.0 | 0.00 | 0.00 | 0.00 | 82 | 1001.1 |
| 20260509140740 | 41 | 114 | 3.0 | 8.0 | 0.00 | 0.00 | 0.00 | 84 | 1001.6 |
| 20260509130739 | 41 | 78 | 3.0 | 7.0 | 0.00 | 0.00 | 0.00 | 84 | 1001.8 |
| 20260509130240 | 41 | 289 | 3.0 | 9.0 | 0.00 | 0.00 | 0.00 | 84 | 1001.8 |
| 20260509120740 | 41 | 306 | 5.0 | 9.0 | 0.00 | 0.00 | 0.00 | 81 | 1001.9 |
| 20260509120240 | 41 | 294 | 6.0 | 9.0 | 0.00 | 0.00 | 0.00 | 81 | 1001.9 |
| 20260509110740 | 41 | 279 | 6.0 | 7.0 | 0.00 | 0.00 | 0.00 | 79 | 1002.5 |
| 20260509100740 | 41 | 274 | 6.0 | 9.0 | 0.00 | 0.00 | 0.00 | 80 | 1002.7 |
| 20260509100239 | 41 | 288 | 7.0 | 9.0 | 0.00 | 0.00 | 0.00 | 80 | 1002.7 |
| 20260509090739 | 41 | 284 | 6.0 | 8.0 | 0.00 | 0.00 | 0.00 | 81 | 1003.1 |
| 20260509090239 | 41 | 289 | 5.0 | 8.0 | 0.00 | 0.00 | 0.00 | 81 | 1003.0 |
| 20260509080739 | 42 | 136 | 5.0 | 8.0 | 0.00 | 0.00 | 0.00 | 81 | 1003.3 |
| 20260509080241 | 42 | 192 | 5.0 | 9.0 | 0.00 | 0.00 | 0.00 | 81 | 1003.3 |
| 20260509060809 | 43 | 267 | 5.0 | 9.0 | 0.00 | 0.00 | 0.00 | 79 | 1003.9 |
| 20260509060308 | 43 | 277 | 4.0 | 9.0 | 0.00 | 0.00 | 0.00 | 78 | 1003.8 |
| 20260509050808 | 44 | 140 | 3.0 | 7.0 | 0.00 | 0.00 | 0.00 | 76 | 1003.9 |
| 20260509050309 | 44 | 139 | 2.0 | 7.0 | 0.00 | 0.00 | 0.00 | 76 | 1003.9 |
| 20260509040808 | 45 | 261 | 3.0 | 7.0 | 0.00 | 0.00 | 0.00 | 73 | 1004.2 |
| 20260509040308 | 45 | 187 | 2.0 | 8.0 | 0.00 | 0.00 | 0.00 | 72 | 1004.3 |
| 20260509030808 | 47 | 320 | 2.0 | 6.0 | 0.00 | 0.00 | 0.00 | 67 | 1004.1 |
| 20260509030308 | 47 | 295 | 2.0 | 8.0 | 0.00 | 0.00 | 0.00 | 67 | 1004.1 |
| 20260509020808 | 49 | 305 | 5.0 | 7.0 | 0.00 | 0.00 | 0.00 | 60 | 1004.0 |
| 20260509020309 | 50 | 324 | 3.0 | 9.0 | 0.00 | 0.00 | 0.00 | 59 | 1004.0 |
| 20260509010808 | 52 | 88 | 2.0 | 3.0 | 0.00 | 0.00 | 0.00 | 54 | 1004.0 |
| 20260509010307 | 52 | 45 | 2.0 | 7.0 | 0.00 | 0.00 | 0.00 | 54 | 1003.9 |
| 20260509000310 | 53 | 40 | 2.0 | 6.0 | 0.00 | 0.00 | 0.00 | 51 | 1004.0 |
| 20260508230808 | 54 | 53 | 2.0 | 5.0 | 0.00 | 0.00 | 0.00 | 48 | 1004.3 |
| 20260508230307 | 54 | 92 | 2.0 | 7.0 | 0.00 | 0.00 | 0.00 | 48 | 1004.3 |
| 20260508220808 | 54 | 95 | 1.0 | 3.0 | 0.00 | 0.00 | 0.00 | 48 | 1004.8 |
| 20260508220308 | 54 | 284 | 1.0 | 8.0 | 0.00 | 0.00 | 0.00 | 47 | 1004.9 |
| 20260508210808 | 51 | 29 | 3.0 | 7.0 | 0.00 | 0.00 | 0.00 | 50 | 1005.6 |
| 20260508210308 | 51 | 300 | 3.0 | 10.0 | 0.00 | 0.00 | 0.00 | 49 | 1005.6 |
| 20260508200809 | 50 | 276 | 5.0 | 8.0 | 0.00 | 0.00 | 0.00 | 50 | 1005.9 |
| 20260508200309 | 49 | 313 | 6.0 | 9.0 | 0.00 | 0.00 | 0.00 | 49 | 1006.0 |
| 20260508190810 | 49 | 301 | 5.0 | 9.0 | 0.00 | 0.00 | 0.00 | 50 | 1006.2 |
| 20260508190309 | 49 | 320 | 5.0 | 9.0 | 0.00 | 0.00 | 0.00 | 50 | 1006.2 |
| 20260508180308 | 46 | 256 | 2.0 | 8.0 | 0.00 | 0.00 | 0.00 | 54 | 1007.0 |
| 20260508170807 | 43 | 291 | 3.0 | 7.0 | 0.00 | 0.00 | 0.00 | 58 | 1007.8 |
| 20260508170308 | 43 | 284 | 3.0 | 8.0 | 0.00 | 0.00 | 0.00 | 58 | 1008.0 |
| 20260508160807 | 34 | 285 | 3.0 | 5.0 | 0.00 | 0.00 | 0.00 | 74 | 1009.0 |
| 20260508160308 | 34 | 278 | 3.0 | 5.0 | 0.00 | 0.00 | 0.00 | 76 | 1009.0 |